Location: ???????
(52.3000°N, 54.4667°E)
Time: 21:51:49
(UTC+00:00)

ATLAS 5 CENTAUR R/B - Pass Details

Date: 24 January 2020
Orbit: 550 x 1108 km, 63.4° (Epoch: 09 February)

Event Time Altitude Azimuth Distance (km) Brightness Sun altitude
Rises 13:42:14 0° 252° (WSW) 2,823 7.5 -7.5°
Reaches altitude 10° 13:44:29 10° 261° (W) 1,977 5.7 -7.9°
Maximum altitude 13:48:41 40° 332° (NNW) 988 2.7 -8.5°
Drops below altitude 10° 13:53:31 10° 42° (NE) 2,269 3.9 -9.1°
Enters shadow 13:53:55 - 43° (NE) 2,418 4.0 -9.2°
